ANA458 RJFS-RJTT

Flight info

Callsign ANA458
Flight time 1h 11m
Altitude 39000
Route OOITA Y23 ARTIC Y71 XAC
Aircraft B772/H-SDE2E3FGHIJ5LORVWXY/LB1D1

Departure

Time 2026-05-06 11:27
Airport Kyushu Saga International Airport (RJFS)

Arrival

Time 2026-05-06 12:38
Airport Tokyo Haneda International Airport (RJTT)
Time Latitude Longitude Altitude Speed Heading
2026-05-06 11:03 33.15252 130.30384 17 ft 0 kts
2026-05-06 11:15 33.15233 130.30378 -9 ft 4 kts 35°
2026-05-06 11:15 33.15215 130.30360 20 ft 2 kts 39°
2026-05-06 11:16 33.15201 130.30339 18 ft 4 kts 85°
2026-05-06 11:16 33.15203 130.30309 20 ft 3 kts 99°
2026-05-06 11:16 33.15207 130.30280 17 ft 4 kts 99°
2026-05-06 11:16 33.15211 130.30248 20 ft 4 kts 99°
2026-05-06 11:17 33.15215 130.30216 20 ft 4 kts 99°
2026-05-06 11:17 33.15217 130.30202 18 ft 0 kts 99°
2026-05-06 11:21 33.15217 130.30203 18 ft 0 kts 99°
2026-05-06 11:21 33.15216 130.30205 19 ft 0 kts 99°
2026-05-06 11:21 33.15200 130.30250 18 ft 15 kts 134°
2026-05-06 11:22 33.15114 130.30247 17 ft 13 kts 189°
2026-05-06 11:22 33.15027 130.30230 16 ft 13 kts 188°
2026-05-06 11:22 33.14963 130.30283 17 ft 13 kts 108°
2026-05-06 11:22 33.14947 130.30386 18 ft 13 kts 100°
2026-05-06 11:23 33.14932 130.30490 19 ft 13 kts 99°
2026-05-06 11:23 33.14918 130.30594 19 ft 13 kts 99°
2026-05-06 11:23 33.14904 130.30697 18 ft 13 kts 99°
2026-05-06 11:23 33.14889 130.30801 17 ft 13 kts 99°
2026-05-06 11:24 33.14874 130.30905 17 ft 13 kts 99°
2026-05-06 11:24 33.14860 130.31008 16 ft 13 kts 99°
2026-05-06 11:24 33.14845 130.31112 15 ft 13 kts 99°
2026-05-06 11:24 33.14854 130.31213 16 ft 12 kts 66°
2026-05-06 11:25 33.14855 130.31244 13 ft 5 kts 102°
2026-05-06 11:25 33.14832 130.31267 9 ft 3 kts 163°
2026-05-06 11:25 33.14828 130.31268 20 ft 1 kts 172°
2026-05-06 11:25 33.14819 130.31264 17 ft 4 kts 202°
2026-05-06 11:26 33.14824 130.31212 16 ft 9 kts 301°
2026-05-06 11:26 33.14842 130.31139 15 ft 5 kts 278°
2026-05-06 11:26 33.14868 130.30955 18 ft 70 kts 281°
2026-05-06 11:27 33.15005 130.29984 76 ft 159 kts 279°
2026-05-06 11:27 33.15207 130.28669 1147 ft 157 kts 275°
2026-05-06 11:27 33.14898 130.27379 2098 ft 180 kts 230°
2026-05-06 11:27 33.13740 130.26644 2433 ft 209 kts 185°
2026-05-06 11:28 33.12242 130.27018 2702 ft 232 kts 160°
2026-05-06 11:28 33.10639 130.27701 3118 ft 255 kts 162°
2026-05-06 11:28 33.08970 130.28477 3870 ft 261 kts 148°
2026-05-06 11:28 33.07738 130.30063 4798 ft 266 kts 117°
2026-05-06 11:29 33.07321 130.32203 5794 ft 270 kts 90°
2026-05-06 11:29 33.07539 130.34446 6550 ft 277 kts 83°
2026-05-06 11:29 33.07832 130.36713 7330 ft 283 kts 83°
2026-05-06 11:29 33.08128 130.39049 8226 ft 287 kts 82°
2026-05-06 11:30 33.08423 130.41424 9106 ft 291 kts 82°
2026-05-06 11:30 33.08717 130.43836 9969 ft 297 kts 82°
2026-05-06 11:30 33.09029 130.46307 10545 ft 311 kts 79°
2026-05-06 11:30 33.09492 130.48940 10752 ft 338 kts 77°
2026-05-06 11:31 33.10053 130.51729 11347 ft 352 kts 76°
2026-05-06 11:31 33.10441 130.53622 11842 ft 357 kts 76°
2026-05-06 11:31 33.11226 130.57486 12963 ft 366 kts 76°
2026-05-06 11:31 33.11819 130.60453 13865 ft 370 kts 76°
2026-05-06 11:32 33.12414 130.63465 14633 ft 375 kts 76°
2026-05-06 11:32 33.13007 130.66494 15544 ft 376 kts 75°
2026-05-06 11:32 33.13599 130.69536 16415 ft 378 kts 75°
2026-05-06 11:32 33.14193 130.72594 17184 ft 383 kts 75°
2026-05-06 11:33 33.14795 130.75703 17957 ft 387 kts 75°
2026-05-06 11:33 33.15403 130.78849 18690 ft 391 kts 75°
2026-05-06 11:33 33.15808 130.80946 19111 ft 394 kts 75°
2026-05-06 11:33 33.16632 130.85214 19942 ft 401 kts 75°
2026-05-06 11:34 33.17259 130.88472 20568 ft 406 kts 75°
2026-05-06 11:34 33.17895 130.91780 21163 ft 411 kts 75°
2026-05-06 11:34 33.18276 130.94043 21573 ft 414 kts 79°
2026-05-06 11:34 33.18520 130.97434 22391 ft 413 kts 85°
2026-05-06 11:35 33.18601 131.00827 23450 ft 407 kts 86°
2026-05-06 11:35 33.18707 131.04212 24081 ft 410 kts 84°
2026-05-06 11:35 33.18870 131.07627 24579 ft 415 kts 84°
2026-05-06 11:35 33.19056 131.11083 25136 ft 418 kts 83°
2026-05-06 11:36 33.19241 131.14560 25741 ft 420 kts 84°
2026-05-06 11:36 33.19481 131.19181 26560 ft 423 kts 84°
2026-05-06 11:36 33.19603 131.21553 26926 ft 425 kts 84°
2026-05-06 11:36 33.19783 131.25090 27439 ft 429 kts 84°
2026-05-06 11:37 33.19963 131.28617 27961 ft 433 kts 84°
2026-05-06 11:37 33.20145 131.32215 28489 ft 436 kts 84°
2026-05-06 11:37 33.20327 131.35848 28990 ft 440 kts 84°
2026-05-06 11:37 33.20512 131.39532 29270 ft 449 kts 85°
2026-05-06 11:38 33.20697 131.43281 29665 ft 454 kts 85°
2026-05-06 11:38 33.20882 131.47057 30198 ft 456 kts 85°
2026-05-06 11:38 33.21066 131.50843 30591 ft 459 kts 85°
2026-05-06 11:38 33.21252 131.54670 30892 ft 464 kts 85°
2026-05-06 11:39 33.21440 131.58550 31071 ft 473 kts 87°
2026-05-06 11:39 33.21628 131.62455 31213 ft 482 kts 87°
2026-05-06 11:39 33.21817 131.66432 31884 ft 476 kts 88°
2026-05-06 11:39 33.22079 131.70352 32517 ft 473 kts 81°
2026-05-06 11:40 33.22998 131.74121 32816 ft 476 kts 68°
2026-05-06 11:40 33.25653 131.81548 32918 ft 498 kts 67°
2026-05-06 11:40 33.27043 131.85368 33136 ft 504 kts 66°
2026-05-06 11:41 33.28423 131.89249 33276 ft 511 kts 67°
2026-05-06 11:41 33.29773 131.93147 33453 ft 517 kts 68°
2026-05-06 11:41 33.31132 131.97138 33712 ft 521 kts 68°
2026-05-06 11:41 33.32492 132.01175 33871 ft 528 kts 69°
2026-05-06 11:42 33.33870 132.05283 33911 ft 537 kts 69°
2026-05-06 11:42 33.35263 132.09437 34152 ft 540 kts 69°
2026-05-06 11:42 33.36665 132.13608 34634 ft 536 kts 69°
2026-05-06 11:42 33.38052 132.17737 35051 ft 535 kts 69°
2026-05-06 11:43 33.39439 132.21869 35294 ft 538 kts 70°
2026-05-06 11:43 33.42237 132.30224 35579 ft 547 kts 70°
2026-05-06 11:44 33.45048 132.38621 36517 ft 540 kts 70°
2026-05-06 11:44 33.46444 132.42791 36864 ft 539 kts 71°
2026-05-06 11:44 33.47843 132.46973 37000 ft 544 kts 71°
2026-05-06 11:44 33.49259 132.51212 37058 ft 550 kts 71°
2026-05-06 11:45 33.52117 132.59780 37322 ft 556 kts 71°
2026-05-06 11:45 33.53552 132.64090 37541 ft 558 kts 71°
2026-05-06 11:45 33.54971 132.68361 37708 ft 560 kts 71°
2026-05-06 11:46 33.56410 132.72700 37952 ft 560 kts 72°
2026-05-06 11:46 33.57844 132.77026 38328 ft 556 kts 72°
2026-05-06 11:46 33.59271 132.81336 38652 ft 555 kts 72°
2026-05-06 11:46 33.60695 132.85649 38802 ft 557 kts 72°
2026-05-06 11:47 33.62124 132.89982 38913 ft 561 kts 72°
2026-05-06 11:47 33.63560 132.94339 38985 ft 561 kts 72°
2026-05-06 11:47 33.66045 133.03158 39089 ft 556 kts 78°
2026-05-06 11:48 33.68118 133.12021 39151 ft 554 kts 79°
2026-05-06 11:48 33.70200 133.20945 39123 ft 556 kts 78°
2026-05-06 11:49 33.72331 133.29863 39135 ft 555 kts 78°
2026-05-06 11:49 33.74454 133.38765 39114 ft 554 kts 78°
2026-05-06 11:50 33.76547 133.47598 39113 ft 553 kts 78°
2026-05-06 11:50 33.78649 133.56494 39121 ft 555 kts 78°
2026-05-06 11:51 33.80765 133.65453 39102 ft 557 kts 78°
2026-05-06 11:51 33.82869 133.74334 39126 ft 552 kts 78°
2026-05-06 11:52 33.84950 133.83188 39135 ft 556 kts 78°
2026-05-06 11:52 33.87043 133.92123 39124 ft 551 kts 78°
2026-05-06 11:53 33.89111 134.00982 39124 ft 550 kts 78°
2026-05-06 11:53 33.91172 134.09862 39146 ft 552 kts 78°
2026-05-06 11:54 33.93249 134.18817 39139 ft 558 kts 78°
2026-05-06 11:54 33.95323 134.27795 39129 ft 562 kts 78°
2026-05-06 11:55 33.97415 134.36898 39134 ft 566 kts 78°
2026-05-06 11:55 33.99516 134.46069 39127 ft 570 kts 77°
2026-05-06 11:56 34.01625 134.55310 39147 ft 573 kts 78°
2026-05-06 11:56 34.03724 134.64535 39122 ft 576 kts 78°
2026-05-06 11:57 34.05837 134.73867 39129 ft 578 kts 78°
2026-05-06 11:57 34.07950 134.83231 39145 ft 580 kts 78°
2026-05-06 11:58 34.10062 134.92627 39113 ft 580 kts 78°
2026-05-06 11:58 34.12142 135.01934 39106 ft 573 kts 78°
2026-05-06 11:59 34.13169 135.06524 39100 ft 562 kts 78°
2026-05-06 11:59 34.14185 135.11058 39105 ft 559 kts 78°
2026-05-06 11:59 34.16206 135.20117 39125 ft 559 kts 78°
2026-05-06 12:00 34.18217 135.29183 39122 ft 559 kts 78°
2026-05-06 12:00 34.20225 135.38274 39121 ft 560 kts 78°
2026-05-06 12:01 34.22215 135.47309 39109 ft 561 kts 78°
2026-05-06 12:01 34.24213 135.56420 39090 ft 561 kts 78°
2026-05-06 12:02 34.26203 135.65515 39104 ft 559 kts 78°
2026-05-06 12:02 34.28182 135.74617 39130 ft 559 kts 78°
2026-05-06 12:03 34.30139 135.83645 39111 ft 559 kts 79°
2026-05-06 12:03 34.32102 135.92743 39141 ft 560 kts 78°
2026-05-06 12:04 34.34068 136.01862 39123 ft 560 kts 79°
2026-05-06 12:04 34.36020 136.10990 39152 ft 559 kts 79°
2026-05-06 12:05 34.37966 136.20117 39142 ft 561 kts 79°
2026-05-06 12:05 34.39893 136.29206 39131 ft 562 kts 79°
2026-05-06 12:06 34.41826 136.38365 39137 ft 562 kts 79°
2026-05-06 12:06 34.43753 136.47539 39144 ft 562 kts 79°
2026-05-06 12:07 34.45681 136.56733 39134 ft 563 kts 79°
2026-05-06 12:07 34.47589 136.65874 39125 ft 564 kts 79°
2026-05-06 12:08 34.49503 136.75088 39131 ft 565 kts 79°
2026-05-06 12:08 34.51416 136.84332 39129 ft 566 kts 79°
2026-05-06 12:09 34.53256 136.93601 39130 ft 564 kts 83°
2026-05-06 12:09 34.54096 137.02995 39140 ft 556 kts 95°
2026-05-06 12:10 34.54092 137.12312 39128 ft 556 kts 96°
2026-05-06 12:10 34.54093 137.21696 39131 ft 557 kts 95°
2026-05-06 12:11 34.54146 137.31077 39134 ft 557 kts 95°
2026-05-06 12:11 34.54209 137.40416 39138 ft 557 kts 95°
2026-05-06 12:12 34.54259 137.49819 39129 ft 557 kts 95°
2026-05-06 12:12 34.54299 137.59216 39120 ft 557 kts 95°
2026-05-06 12:13 34.54313 137.63914 39017 ft 560 kts 95°
2026-05-06 12:13 34.54317 137.68681 38281 ft 567 kts 95°
2026-05-06 12:13 34.54318 137.73446 37641 ft 564 kts 95°
2026-05-06 12:13 34.54320 137.78197 37009 ft 561 kts 95°
2026-05-06 12:14 34.54320 137.82863 36394 ft 559 kts 96°
2026-05-06 12:14 34.54319 137.87566 35735 ft 558 kts 96°
2026-05-06 12:14 34.54315 137.92268 34978 ft 559 kts 96°
2026-05-06 12:14 34.54310 137.96984 34291 ft 558 kts 96°
2026-05-06 12:15 34.54305 138.01654 33803 ft 550 kts 95°
2026-05-06 12:15 34.54299 138.06270 33312 ft 545 kts 95°
2026-05-06 12:15 34.54291 138.10857 32837 ft 540 kts 95°
2026-05-06 12:15 34.54281 138.15379 32376 ft 534 kts 95°
2026-05-06 12:16 34.54269 138.19803 31950 ft 530 kts 95°
2026-05-06 12:16 34.54255 138.24258 31508 ft 525 kts 95°
2026-05-06 12:16 34.54241 138.28671 31064 ft 521 kts 95°
2026-05-06 12:16 34.54287 138.33052 30632 ft 520 kts 90°
2026-05-06 12:17 34.54776 138.37408 30191 ft 522 kts 81°
2026-05-06 12:17 34.55706 138.41655 29673 ft 520 kts 74°
2026-05-06 12:17 34.57026 138.45723 29144 ft 518 kts 64°
2026-05-06 12:17 34.58660 138.49595 28648 ft 513 kts 63°
2026-05-06 12:18 34.60317 138.53412 28145 ft 509 kts 63°
2026-05-06 12:18 34.61951 138.57212 27659 ft 506 kts 63°
2026-05-06 12:18 34.63526 138.60944 27176 ft 503 kts 64°
2026-05-06 12:18 34.65096 138.64723 26686 ft 500 kts 64°
2026-05-06 12:19 34.66648 138.68483 26214 ft 497 kts 64°
2026-05-06 12:19 34.68197 138.72239 25714 ft 496 kts 64°
2026-05-06 12:19 34.69693 138.76001 25225 ft 493 kts 69°
2026-05-06 12:19 34.70804 138.79942 24519 ft 494 kts 78°
2026-05-06 12:20 34.71474 138.84056 23599 ft 500 kts 86°
2026-05-06 12:20 34.71695 138.88274 22677 ft 501 kts 95°
2026-05-06 12:20 34.71674 138.92490 22067 ft 499 kts 91°
2026-05-06 12:20 34.72043 138.96689 21443 ft 500 kts 82°
2026-05-06 12:21 34.72750 139.00761 20868 ft 497 kts 79°
2026-05-06 12:21 34.73482 139.04823 20337 ft 484 kts 80°
2026-05-06 12:21 34.74173 139.08736 19851 ft 464 kts 80°
2026-05-06 12:21 34.74819 139.12505 19380 ft 447 kts 80°
2026-05-06 12:22 34.75429 139.16139 18923 ft 432 kts 80°
2026-05-06 12:22 34.76012 139.19664 18482 ft 419 kts 80°
2026-05-06 12:22 34.76575 139.23094 18010 ft 406 kts 80°
2026-05-06 12:22 34.77175 139.26361 17858 ft 385 kts 79°
2026-05-06 12:23 34.77698 139.29464 17700 ft 365 kts 81°
2026-05-06 12:23 34.78233 139.32423 17402 ft 354 kts 71°
2026-05-06 12:23 34.79340 139.35052 17125 ft 346 kts 53°
2026-05-06 12:23 34.80710 139.37392 16788 ft 343 kts 52°
2026-05-06 12:24 34.82092 139.39740 16474 ft 340 kts 52°
2026-05-06 12:24 34.83456 139.42074 16178 ft 337 kts 53°
2026-05-06 12:24 34.84797 139.44390 15855 ft 334 kts 53°
2026-05-06 12:24 34.86125 139.46701 15584 ft 331 kts 53°
2026-05-06 12:25 34.87425 139.48976 15255 ft 323 kts 53°
2026-05-06 12:25 34.88698 139.51213 14752 ft 320 kts 53°
2026-05-06 12:25 34.89971 139.53453 14283 ft 323 kts 53°
2026-05-06 12:25 34.91242 139.55696 14023 ft 319 kts 54°
2026-05-06 12:26 34.92492 139.57904 13783 ft 315 kts 54°
2026-05-06 12:26 34.93728 139.60090 13471 ft 312 kts 54°
2026-05-06 12:26 34.94960 139.62270 13121 ft 312 kts 54°
2026-05-06 12:26 34.96171 139.64414 12792 ft 310 kts 54°
2026-05-06 12:27 34.97389 139.66572 12495 ft 308 kts 54°
2026-05-06 12:27 34.98599 139.68718 12193 ft 306 kts 54°
2026-05-06 12:27 34.99805 139.70857 11881 ft 305 kts 54°
2026-05-06 12:27 35.01000 139.72980 11568 ft 303 kts 54°
2026-05-06 12:28 35.02191 139.75096 11288 ft 302 kts 54°
2026-05-06 12:28 35.03377 139.77205 10991 ft 300 kts 54°
2026-05-06 12:28 35.04547 139.79285 10647 ft 295 kts 55°
2026-05-06 12:28 35.05705 139.81346 10138 ft 294 kts 55°
2026-05-06 12:29 35.06861 139.83405 9613 ft 293 kts 55°
2026-05-06 12:29 35.08005 139.85442 9135 ft 290 kts 55°
2026-05-06 12:29 35.09136 139.87466 8683 ft 286 kts 55°
2026-05-06 12:29 35.10252 139.89452 8382 ft 284 kts 55°
2026-05-06 12:30 35.11369 139.91443 8200 ft 284 kts 56°
2026-05-06 12:30 35.12455 139.93382 8222 ft 278 kts 56°
2026-05-06 12:30 35.13560 139.95344 8135 ft 282 kts 56°
2026-05-06 12:30 35.14810 139.97158 8029 ft 280 kts 33°
2026-05-06 12:31 35.16575 139.98026 7947 ft 272 kts
2026-05-06 12:31 35.18437 139.98090 7625 ft 269 kts 356°
2026-05-06 12:31 35.20340 139.98143 7193 ft 276 kts 358°
2026-05-06 12:31 35.22269 139.98211 6851 ft 278 kts 358°
2026-05-06 12:32 35.24208 139.98281 6523 ft 277 kts 357°
2026-05-06 12:32 35.26061 139.97937 6135 ft 266 kts 333°
2026-05-06 12:32 35.27683 139.96893 5793 ft 263 kts 325°
2026-05-06 12:32 35.29270 139.95774 5436 ft 261 kts 326°
2026-05-06 12:33 35.30797 139.94704 5099 ft 253 kts 326°
2026-05-06 12:33 35.32299 139.93649 4763 ft 245 kts 326°
2026-05-06 12:33 35.33779 139.92605 4445 ft 246 kts 326°
2026-05-06 12:33 35.35264 139.91556 4128 ft 247 kts 326°
2026-05-06 12:34 35.36747 139.90512 3826 ft 241 kts 326°
2026-05-06 12:34 35.38158 139.89520 3501 ft 227 kts 326°
2026-05-06 12:34 35.39493 139.88579 3184 ft 218 kts 325°
2026-05-06 12:34 35.40746 139.87693 2902 ft 214 kts 326°
2026-05-06 12:35 35.42061 139.86763 2627 ft 215 kts 326°
2026-05-06 12:35 35.43364 139.85842 2342 ft 216 kts 326°
2026-05-06 12:35 35.44637 139.84944 2045 ft 208 kts 326°
2026-05-06 12:35 35.45878 139.84068 1777 ft 203 kts 326°
2026-05-06 12:36 35.47074 139.83222 1497 ft 198 kts 327°
2026-05-06 12:36 35.48221 139.82412 1286 ft 182 kts 327°
2026-05-06 12:36 35.49285 139.81658 1015 ft 171 kts 327°
2026-05-06 12:36 35.50305 139.80938 799 ft 163 kts 328°
2026-05-06 12:37 35.51246 139.80274 621 ft 149 kts 328°
2026-05-06 12:37 35.52145 139.79631 461 ft 148 kts 328°
2026-05-06 12:37 35.53030 139.79009 216 ft 142 kts 329°
2026-05-06 12:37 35.53887 139.78406 43 ft 144 kts 329°
2026-05-06 12:38 35.54671 139.77851 29 ft 105 kts 329°
2026-05-06 12:38 35.55103 139.77543 29 ft 45 kts 330°
2026-05-06 12:38 35.55390 139.77371 30 ft 37 kts 347°
2026-05-06 12:38 35.55563 139.77354 28 ft 18 kts 359°
2026-05-06 12:39 35.55687 139.77353 26 ft 18 kts 358°
2026-05-06 12:39 35.55770 139.77322 26 ft 6 kts 332°
2026-05-06 12:39 35.55811 139.77311 31 ft 6 kts 10°
2026-05-06 12:39 35.55846 139.77343 27 ft 7 kts 54°
2026-05-06 12:40 35.55870 139.77392 28 ft 7 kts 59°
2026-05-06 12:40 35.55897 139.77449 27 ft 9 kts 59°
2026-05-06 12:40 35.55938 139.77533 27 ft 12 kts 59°
2026-05-06 12:40 35.55980 139.77620 27 ft 12 kts 59°
2026-05-06 12:41 35.56021 139.77707 28 ft 12 kts 60°
2026-05-06 12:41 35.56061 139.77794 29 ft 12 kts 60°
2026-05-06 12:41 35.56102 139.77880 29 ft 12 kts 60°
2026-05-06 12:41 35.56142 139.77967 29 ft 12 kts 59°
2026-05-06 12:42 35.56184 139.78053 29 ft 12 kts 60°
2026-05-06 12:42 35.56221 139.78132 29 ft 10 kts 60°
2026-05-06 12:42 35.56257 139.78209 29 ft 10 kts 60°
2026-05-06 12:42 35.56293 139.78286 28 ft 10 kts 60°
2026-05-06 12:43 35.56314 139.78328 29 ft 0 kts 60°
2026-05-06 12:48 35.56331 139.78367 29 ft 14 kts 63°
2026-05-06 12:48 35.56321 139.78462 28 ft 8 kts 151°
2026-05-06 12:49 35.56272 139.78496 29 ft 8 kts 150°
2026-05-06 12:49 35.56224 139.78529 29 ft 8 kts 150°
2026-05-06 12:49 35.56176 139.78565 28 ft 8 kts 148°
2026-05-06 12:49 35.56129 139.78601 28 ft 8 kts 148°
2026-05-06 12:50 35.56081 139.78638 27 ft 8 kts 148°
2026-05-06 12:50 35.56034 139.78673 27 ft 8 kts 152°
2026-05-06 12:50 35.55970 139.78712 27 ft 15 kts 153°
2026-05-06 12:50 35.55862 139.78787 28 ft 19 kts 150°
2026-05-06 12:51 35.55749 139.78869 28 ft 19 kts 149°
2026-05-06 12:51 35.55636 139.78949 30 ft 13 kts 150°
2026-05-06 12:51 35.55557 139.79004 29 ft 13 kts 150°
2026-05-06 12:51 35.55474 139.79043 30 ft 13 kts 186°
2026-05-06 12:52 35.55414 139.78967 32 ft 9 kts 243°
2026-05-06 12:52 35.55425 139.78905 31 ft 9 kts 326°
2026-05-06 12:52 35.55457 139.78882 31 ft 2 kts 329°
2026-05-06 12:52 35.55464 139.78877 32 ft 1 kts 329°
2026-05-06 12:53 35.55465 139.78876 32 ft 0 kts 329°